• In Germany
  • List of Countries
  • For 7 days
  • Water Temperature
  • Satellite Maps
  • Weather Map
  • Weather Widgets
  • user-avatar
    Login

    Hourly Weather Graz

    Today, 23 July, Sunday

    Time Temperature Precipitation Wind Pressure Humidity
    00:00 +21°C° 0.7 mm 1 mps 724 mmHg 86%
    01:00 +20°C° 0.7 mm 1 mps 723 mmHg 88%
    02:00 +20°C° 0.4 mm 1 mps 723 mmHg 88%
    03:00 +20°C° 0.4 mm 1 mps 724 mmHg 89%
    04:00 +20°C° 0.4 mm 1 mps 724 mmHg 90%
    05:00 +21°C° 0.1 mm 1 mps 724 mmHg 86%
    06:00 +22°C° 0.1 mm 1 mps 724 mmHg 82%
    07:00 +24°C° 0.1 mm 1 mps 724 mmHg 79%
    08:00 +26°C° 0.4 mm 1 mps 724 mmHg 71%
    09:00 +28°C° 0.4 mm 1 mps 724 mmHg 64%
    10:00 +30°C° 0.4 mm 1 mps 725 mmHg 57%
    11:00 +30°C° 0.5 mm 1 mps 724 mmHg 58%
    12:00 +30°C° 0.5 mm 1 mps 724 mmHg 58%
    13:00 +30°C° 0.5 mm 1 mps 724 mmHg 59%
    14:00 +29°C° 1.1 mm 1 mps 724 mmHg 63%
    15:00 +28°C° 1.1 mm 1 mps 724 mmHg 66%
    16:00 +28°C° 1.1 mm 1 mps 724 mmHg 69%
    17:00 +26°C° 1.2 mm 1 mps 724 mmHg 74%
    18:00 +25°C° 1.2 mm 1 mps 724 mmHg 79%
    19:00 +24°C° 1.2 mm 1 mps 724 mmHg 84%
    20:00 +22°C° 1.3 mm 1 mps 724 mmHg 87%
    21:00 +21°C° 1.3 mm 1 mps 724 mmHg 90%
    22:00 +20°C° 1.3 mm 1 mps 724 mmHg 94%
    23:00 +20°C° 0.2 mm 1 mps 724 mmHg 94%

    Tomorrow, 24 July, Monday

    Time Temperature Precipitation Wind Pressure Humidity
    00:00 +19°C° 0.2 mm 1 mps 723 mmHg 95%
    01:00 +19°C° 0.2 mm 1 mps 723 mmHg 95%
    02:00 +19°C° 0.2 mm 1 mps 723 mmHg 95%
    03:00 +19°C° 0.2 mm 1 mps 722 mmHg 94%
    04:00 +20°C° 0.2 mm 1 mps 722 mmHg 94%
    05:00 +20°C° 0.6 mm 1 mps 722 mmHg 93%
    06:00 +21°C° 0.6 mm 1 mps 721 mmHg 93%
    07:00 +21°C° 0.6 mm 1 mps 721 mmHg 92%
    08:00 +21°C° 0.4 mm 1 mps 721 mmHg 91%
    09:00 +21°C° 0.4 mm 1 mps 720 mmHg 90%
    10:00 +22°C° 0.4 mm 1 mps 720 mmHg 89%
    11:00 +22°C° 0.3 mm 1 mps 719 mmHg 86%
    12:00 +23°C° 0.3 mm 1 mps 719 mmHg 82%
    13:00 +24°C° 0.3 mm 1 mps 718 mmHg 78%
    14:00 +24°C° 0.5 mm 1 mps 718 mmHg 78%
    15:00 +24°C° 0.5 mm 1 mps 717 mmHg 78%
    16:00 +25°C° 0.5 mm 1 mps 717 mmHg 78%
    17:00 +23°C° 1.5 mm 2 mps 717 mmHg 82%
    18:00 +21°C° 1.5 mm 2 mps 717 mmHg 85%
    19:00 +20°C° 1.5 mm 2 mps 717 mmHg 88%
    20:00 +19°C° 1.5 mm 2 mps 717 mmHg 90%
    21:00 +18°C° 1.5 mm 3 mps 717 mmHg 91%
    22:00 +16°C° 1.5 mm 3 mps 717 mmHg 93%
    23:00 +16°C° 0.1 mm 2 mps 717 mmHg 92%

    Day after tomorrow, 25 July, Tuesday

    Time Temperature Precipitation Wind Pressure Humidity
    00:00 +15°C° 0.1 mm 2 mps 717 mmHg 92%
    01:00 +15°C° 0.1 mm 2 mps 718 mmHg 92%
    02:00 +14°C° 0 mm 2 mps 717 mmHg 91%
    03:00 +14°C° 0 mm 2 mps 717 mmHg 91%
    04:00 +14°C° 0 mm 2 mps 717 mmHg 91%
    05:00 +15°C° 0 mm 2 mps 717 mmHg 88%
    06:00 +15°C° 0 mm 2 mps 717 mmHg 85%
    07:00 +16°C° 0 mm 2 mps 718 mmHg 82%
    08:00 +18°C° 0 mm 2 mps 718 mmHg 72%
    09:00 +19°C° 0 mm 2 mps 718 mmHg 62%
    10:00 +21°C° 0 mm 2 mps 718 mmHg 52%
    11:00 +23°C° 0 mm 2 mps 717 mmHg 48%
    12:00 +24°C° 0 mm 2 mps 717 mmHg 45%
    13:00 +25°C° 0 mm 2 mps 717 mmHg 41%
    14:00 +25°C° 0 mm 2 mps 717 mmHg 45%
    15:00 +24°C° 0 mm 1 mps 717 mmHg 49%
    16:00 +23°C° 0 mm 1 mps 717 mmHg 53%
    17:00 +22°C° 0.1 mm 1 mps 717 mmHg 59%
    18:00 +21°C° 0.1 mm 1 mps 717 mmHg 66%
    19:00 +20°C° 0.1 mm 1 mps 717 mmHg 72%
    20:00 +18°C° 0 mm 1 mps 717 mmHg 76%
    21:00 +16°C° 0 mm 1 mps 717 mmHg 79%
    22:00 +14°C° 0 mm 1 mps 717 mmHg 83%
    23:00 +14°C° 0 mm 1 mps 717 mmHg 84%

    26 July, Wednesday

    Time Temperature Precipitation Wind Pressure Humidity
    00:00 +13°C° 0 mm 1 mps 717 mmHg 86%
    01:00 +13°C° 0 mm 1 mps 717 mmHg 87%
    02:00 +12°C° 0 mm 1 mps 717 mmHg 88%
    03:00 +12°C° 0 mm 1 mps 717 mmHg 88%
    04:00 +12°C° 0 mm 2 mps 717 mmHg 89%
    05:00 +13°C° 0 mm 2 mps 717 mmHg 84%
    06:00 +15°C° 0 mm 2 mps 717 mmHg 79%
    07:00 +16°C° 0 mm 2 mps 717 mmHg 74%
    08:00 +20°C° 0 mm 1 mps 718 mmHg 65%
    09:00 +22°C° 0 mm 1 mps 718 mmHg 55%
    10:00 +24°C° 0 mm 1 mps 718 mmHg 46%
    11:00 +25°C° 0 mm 1 mps 718 mmHg 46%
    12:00 +25°C° 0 mm 1 mps 718 mmHg 46%
    13:00 +25°C° 0 mm 1 mps 718 mmHg 45%
    14:00 +25°C° 0.1 mm 1 mps 718 mmHg 49%
    15:00 +24°C° 0.1 mm 1 mps 718 mmHg 52%
    16:00 +24°C° 0.1 mm 1 mps 718 mmHg 55%
    17:00 +22°C° 0.1 mm 1 mps 719 mmHg 62%
    18:00 +21°C° 0.1 mm 1 mps 719 mmHg 68%
    19:00 +20°C° 0.1 mm 1 mps 719 mmHg 74%
    20:00 +19°C° 0 mm 1 mps 720 mmHg 77%
    21:00 +16°C° 0 mm 1 mps 720 mmHg 80%
    22:00 +15°C° 0 mm 2 mps 721 mmHg 83%
    23:00 +15°C° 0 mm 2 mps 721 mmHg 85%

    27 July, Thursday

    Time Temperature Precipitation Wind Pressure Humidity
    00:00 +15°C° 0 mm 2 mps 721 mmHg 86%
    01:00 +14°C° 0 mm 2 mps 721 mmHg 88%
    02:00 +14°C° 0 mm 1 mps 722 mmHg 87%
    03:00 +15°C° 0 mm 1 mps 722 mmHg 85%
    04:00 +15°C° 0 mm 1 mps 722 mmHg 84%
    05:00 +16°C° 0 mm 1 mps 722 mmHg 83%
    06:00 +16°C° 0 mm 1 mps 723 mmHg 81%
    07:00 +18°C° 0 mm 1 mps 723 mmHg 79%
    08:00 +19°C° 0 mm 1 mps 723 mmHg 76%
    09:00 +19°C° 0 mm 1 mps 723 mmHg 74%
    10:00 +20°C° 0 mm 1 mps 724 mmHg 71%
    11:00 +21°C° 0 mm 1 mps 724 mmHg 68%
    12:00 +21°C° 0 mm 1 mps 723 mmHg 65%
    13:00 +22°C° 0 mm 1 mps 723 mmHg 62%
    14:00 +23°C° 0 mm 1 mps 723 mmHg 58%
    15:00 +24°C° 0 mm 1 mps 723 mmHg 53%
    16:00 +25°C° 0 mm 1 mps 723 mmHg 49%
    17:00 +24°C° 0 mm 1 mps 723 mmHg 56%
    18:00 +22°C° 0 mm 1 mps 723 mmHg 63%
    19:00 +19°C° 0 mm 0 mps 723 mmHg 70%
    20:00 +20°C° 0 mm 1 mps 723 mmHg 74%
    21:00 +18°C° 0 mm 1 mps 724 mmHg 78%
    22:00 +16°C° 0 mm 1 mps 724 mmHg 82%
    23:00 +16°C° 0 mm 1 mps 724 mmHg 84%

    28 July, Friday

    Time Temperature Precipitation Wind Pressure Humidity
    00:00 +15°C° 0 mm 1 mps 724 mmHg 85%
    01:00 +15°C° 0 mm 1 mps 724 mmHg 86%
    02:00 +15°C° 0 mm 1 mps 724 mmHg 87%
    03:00 +14°C° 0 mm 1 mps 724 mmHg 87%
    04:00 +14°C° 0 mm 1 mps 724 mmHg 88%
    05:00 +16°C° 0 mm 1 mps 724 mmHg 81%
    06:00 +19°C° 0 mm 1 mps 725 mmHg 75%
    07:00 +21°C° 0 mm 1 mps 725 mmHg 68%
    08:00 +22°C° 0 mm 0 mps 725 mmHg 60%
    09:00 +24°C° 0 mm 0 mps 725 mmHg 52%
    10:00 +27°C° 0 mm 0 mps 726 mmHg 44%
    11:00 +28°C° 0 mm 0 mps 725 mmHg 41%
    12:00 +29°C° 0 mm 0 mps 725 mmHg 38%
    13:00 +30°C° 0 mm 0 mps 725 mmHg 36%
    14:00 +31°C° 0 mm 1 mps 725 mmHg 37%
    15:00 +31°C° 0 mm 1 mps 725 mmHg 38%
    16:00 +30°C° 0 mm 1 mps 724 mmHg 39%
    17:00 +28°C° 0 mm 1 mps 724 mmHg 47%
    18:00 +26°C° 0 mm 1 mps 724 mmHg 56%
    19:00 +24°C° 0 mm 1 mps 724 mmHg 65%
    20:00 +23°C° 0 mm 1 mps 725 mmHg 67%
    21:00 +22°C° 0 mm 1 mps 725 mmHg 70%
    22:00 +21°C° 0 mm 1 mps 726 mmHg 72%
    23:00 +20°C° 0 mm 1 mps 726 mmHg 74%
    Show more